AEROCUBE 6B

Last updated on Sun Jun 21 2026 00:03:50 GMT+0000 (Coordinated Universal Time)

1 40046U 14033AN 26171.02874344 .00004060 00000+0 32996-3 0 9995 2 40046 97.7250 337.7440 0038098 359.5463 0.5719 14.99592335647185
UTC large
Height (km)
Speed (km/s)
/
Latitude / Longitude
Inclination (degrees)
Orbital Period (minutes)
Azimuth
Elevation
Range (km)
Doppler Factor

Next 0 passes for location: London (51.5072 / 0.1276)

No passes found over London.
AEROCUBE 6B